This is the latest recevied weather packets stored in our database for station/object W1NHD. If no packets are shown the sender has not sent any weather packets the latest 10 day(s).
| Time | Temp. | Humidity | Pressure | Rain* | Wind** | Luminosity | Snow |
|---|---|---|---|---|---|---|---|
| 1777757417 | 11.67° C | 79% | 1009.9 hPa | 0 mm | - | - | - |
| 1777750817 | 11.11° C | 85% | 1010.4 hPa | 0.25 mm | - | - | - |
| 1777750218 | 11.11° C | 84% | 1010.5 hPa | 0.25 mm | - | - | - |
| 1777744237 | 12.22° C | 79% | 1010.9 hPa | 0 mm | - | - | - |
| 1777743616 | 11.67° C | 80% | 1011.1 hPa | 0 mm | - | - | - |
| 1777740016 | 11.11° C | 80% | 1011.3 hPa | 0 mm | - | - | - |
| 1777738817 | 11.11° C | 78% | 1011.7 hPa | 0 mm | - | - | - |
| 1777737616 | 11.11° C | 78% | 1012 hPa | 0 mm | - | - | - |
| 1777737038 | 11.11° C | 76% | 1011.9 hPa | 0 mm | - | - | - |
| 1777735816 | 10.56° C | 80% | 1011.9 hPa | 0 mm | - | - | - |
| 1777735236 | 10.56° C | 82% | 1011.8 hPa | 0 mm | - | - | - |
| 1777729816 | 8.89° C | 86% | 1012.8 hPa | 0.25 mm | - | - | - |
| 1777718439 | 9.44° C | 86% | 1011.1 hPa | 0 mm | - | - | - |
| 1777715419 | 8.89° C | 86% | 1011.5 hPa | 0 mm | - | - | - |
| 1777709457 | 8.89° C | 84% | 1010.8 hPa | 0 mm | - | - | - |
| 1777702817 | 8.89° C | 84% | 1011.2 hPa | 0 mm | - | - | - |
| 1777701617 | 8.33° C | 88% | 1011.4 hPa | 0 mm | - | - | - |
| 1777701017 | 7.78° C | 87% | 1011.3 hPa | 0 mm | - | - | - |
| 1777692618 | 9.44° C | 82% | 1011.5 hPa | 0 mm | - | - | - |
| 1777690217 | 10° C | 77% | 1011.4 hPa | 0 mm | - | - | - |
| 1777689017 | 10.56° C | 73% | 1011.5 hPa | 0 mm | - | - | - |
| 1777680017 | 13.89° C | 55% | 1009.9 hPa | 0 mm | - | - | - |
| 1777678817 | 15° C | 41% | 1009.7 hPa | 0 mm | - | - | - |
| 1777672218 | 16.67° C | 35% | 1008.4 hPa | 0 mm | - | - | - |
| 1777669817 | 16.67° C | 37% | 1008.1 hPa | 0 mm | - | - | - |
* Rain latest hour (hover to see other rain measurements)
** Current wind speed in m/s (hover to see current wind gust speed)